Weather History for KGEZ - March, 2015

Change the Weather History Date:

Saturday, March 7, 2015

  Actual Average Record
Temperature  
Mean Temperature 34 °F 38 °F  
Max Temperature 46 °F 48 °F 76 °F (2009)
Min Temperature 22 °F 29 °F 17 °F (1999)
Degree Days  
Heating Degree Days 31 27  
Month to date heating degree days 273 196  
Since 1 July heating degree days 4714 4359  
Cooling Degree Days 0 0  
Month to date cooling degree days 0 0  
Year to date cooling degree days 0 0  
Moisture  
Dew Point 21 °F    
Average Humidity 62    
Maximum Humidity 70    
Minimum Humidity 53    
Precipitation  
Precipitation 0.00 in 0.09 in 0.03 in (2008)
Month to date precipitation 1.01 0.58  
Year to date precipitation 4.03 5.33  
Sea Level Pressure  
Sea Level Pressure 30.21 in    
Wind  
Wind Speed 12 mph (SSW)    
Max Wind Speed 17 mph    
Max Gust Speed 22 mph    
Visibility 10 miles    
Events      
T = Trace of Precipitation, MM = Missing Value Source: NWS Daily Summary

Daily Weather History Graph

Daily Weather History Graph

Search for Another Location

Airport or City:

Trip Planner

Search our weather history database for the weather conditions in past years. The results will help you decide how hot, cold, wet, or windy it might be!

Date:

Astronomy

Mar. 07, 2015 Rise Set
Actual Time 7:07 AM EST 6:41 PM EST
Civil Twilight 6:40 AM EST 7:08 PM EST
Nautical Twilight 6:09 AM EST 7:39 PM EST
Astronomical Twilight 5:38 AM EST 8:11 PM EST
Moon 8:42 PM EST (3/7) 7:54 AM EST (3/7)
Length of Visible Light 12h 27m
Length of Day
11h 34m
Waning Gibbous, 97% of the Moon is Illuminated
Mar 7
Waning Gibbous
Mar 13
Last Quarter
Mar 20
New
Mar 27
First Quarter
Apr 4
Full

Hourly Weather History & Observations

Time (EST) Temp. Windchill Dew Point Humidity Pressure Visibility Wind Dir Wind Speed Gust Speed Precip Events Conditions
12:53 AM 23.0 °F 11.7 °F 12.0 °F 63% 30.33 in 10.0 mi South 11.5 mph - N/A   Clear
1:53 AM 23.0 °F 11.1 °F 10.9 °F 60% 30.32 in 10.0 mi South 12.7 mph - N/A   Clear
2:53 AM 21.9 °F 9.8 °F 10.9 °F 63% 30.30 in 10.0 mi South 12.7 mph - N/A   Clear
3:53 AM 23.0 °F 10.1 °F 10.9 °F 60% 30.27 in 10.0 mi South 15.0 mph - N/A   Clear
4:53 AM 23.0 °F 10.6 °F 10.9 °F 60% 30.26 in 10.0 mi South 13.8 mph - N/A   Clear
5:53 AM 24.1 °F 12.0 °F 12.0 °F 60% 30.26 in 10.0 mi South 13.8 mph - N/A   Clear
6:53 AM 24.1 °F 11.5 °F 12.9 °F 62% 30.25 in 10.0 mi South 15.0 mph - N/A   Clear
7:53 AM 26.1 °F 14.0 °F 15.1 °F 63% 30.24 in 10.0 mi South 15.0 mph - N/A   Clear
8:53 AM 28.0 °F 17.0 °F 17.1 °F 63% 30.25 in 10.0 mi South 13.8 mph - N/A   Clear
9:53 AM 30.9 °F 21.7 °F 19.9 °F 64% 30.26 in 10.0 mi SSW 11.5 mph - N/A   Overcast
10:53 AM 35.1 °F 25.9 °F 23.0 °F 61% 30.23 in 10.0 mi South 13.8 mph - N/A   Overcast
11:53 AM 37.9 °F 30.9 °F 25.0 °F 60% 30.22 in 10.0 mi South 10.4 mph - N/A   Clear
12:53 PM 39.9 °F 32.1 °F 26.1 °F 58% 30.18 in 10.0 mi South 13.8 mph - N/A   Overcast
1:53 PM 41.0 °F 32.8 °F 26.1 °F 55% 30.15 in 10.0 mi South 16.1 mph - N/A   Overcast
2:53 PM 42.1 °F 35.2 °F 27.0 °F 55% 30.12 in 10.0 mi South 12.7 mph - N/A   Mostly Cloudy
3:53 PM 45.0 °F 39.3 °F 28.0 °F 52% 30.12 in 10.0 mi WSW 11.5 mph - N/A   Clear
4:53 PM 45.0 °F 38.2 °F 28.0 °F 52% 30.12 in 10.0 mi SW 15.0 mph - N/A   Clear
5:53 PM 43.0 °F 37.7 °F 28.9 °F 58% 30.14 in 10.0 mi WSW 9.2 mph - N/A   Partly Cloudy
6:53 PM 42.1 °F 36.1 °F 28.0 °F 58% 30.14 in 10.0 mi WSW 10.4 mph - N/A   Clear
7:53 PM 41.0 °F 34.3 °F 28.0 °F 60% 30.16 in 10.0 mi WSW 11.5 mph - N/A   Clear
8:53 PM 39.9 °F 33.4 °F 28.0 °F 63% 30.17 in 10.0 mi WSW 10.4 mph - N/A   Clear
9:53 PM 39.9 °F 33.4 °F 28.9 °F 65% 30.17 in 10.0 mi WSW 10.4 mph - N/A   Clear
10:53 PM 37.0 °F 31.6 °F 28.0 °F 70% 30.20 in 10.0 mi West 6.9 mph - N/A   Clear
11:53 PM 36.0 °F 31.1 °F 28.0 °F 73% 30.20 in 10.0 mi WSW 5.8 mph - N/A   Clear